[[{"header":{"parameterUnit":"m.s-1","parameterCategory":1,"la1":30.2991,"la2":30.254,"lo1":-89.0895,"lo2":-89.0444,"dy":0.0017,"dx":0.0017,"nx":28,"ny":28,"refTime":"2023-09-19T09:00:00:Z","depth":0,"parameterNumber":2,"parameterNumberName":"U-component_of_WINDS"},"data":[0,0,0,0,0,0,0,0,0,0,0,0,0,0,0,0,0,0,0,0,0,0,0,0,0,0,0,0,0,0,0,0,0,0,0,0,0,0,0,0,0,0,0,0,0,0,0,0,0,0,0,0,0,0,0,0,0,0,-3.5194,-3.5195,0,-3.5263,-3.5263,-3.5264,-3.5223,-3.5221,-3.5219,-3.5217,-3.5285,-3.5289,-3.5292,0,0,0,0,0,0,0,0,0,0,0,0,0,-3.5025,-3.5029,-3.5194,-3.5195,-3.5196,-3.5263,-3.5263,-3.5264,-3.5223,-3.5221,-3.5219,-3.5216,-3.5284,-3.5288,-3.5293,0,0,0,0,0,0,0,0,0,0,0,0,0,-3.5097,-3.503,-3.5194,-3.5183,-3.5183,-3.5262,-3.5263,-3.5265,-3.5224,-3.5221,-3.5218,-3.5215,-3.5283,-3.5288,-3.5293,-3.5386,0,0,-3.531,-3.5312,0,0,0,0,0,0,0,0,-3.5093,-3.5103,-3.5184,-3.5184,-3.5184,-3.5231,-3.5229,-3.5305,-3.5225,-3.5208,-3.5217,-3.5214,-3.527,-3.5276,-3.5295,-3.5389,-3.5392,-3.5311,-3.5314,-3.5316,-3.5318,0,0,0,0,0,0,0,-3.5088,-3.51,-3.5221,-3.5185,-3.5185,-3.5174,-3.5181,-3.5243,-3.5255,-3.521,-3.5207,-3.5216,-3.5269,-3.529,-3.5296,-3.5393,-3.531,-3.5315,-3.5319,-3.5321,-3.5565,-3.5568,0,0,0,0,0,0,-3.5084,-3.5096,-3.5219,-3.5223,-3.513,-3.518,-3.5188,-3.5219,-3.5254,-3.5256,-3.5218,-3.5213,-3.5282,-3.529,-3.5299,-3.5408,-3.5316,-3.5321,-3.5324,-3.5561,-3.5565,-3.5569,0,0,0,0,0,0,-3.508,-3.5095,-3.5216,-3.5159,-3.5173,-3.5186,-3.5222,-3.5222,-3.5243,-3.526,-3.5262,-3.5238,-3.528,-3.5291,-3.5364,-3.541,-3.5324,-3.5329,-3.5558,-3.5563,-3.5567,-3.5628,0,0,0,0,0,0,-3.5076,-3.5094,-3.513,-3.516,-3.5177,-3.5282,-3.5225,-3.5226,-3.5253,-3.5247,-3.5279,-3.5281,-3.5279,-3.5356,-3.537,-3.5416,-3.5333,-3.5553,-3.556,-3.5565,-3.5622,-3.5634,-3.5645,0,0,0,0,0,-3.507,-3.5145,-3.5132,-3.5147,-3.5222,-3.5284,-3.5294,-3.529,-3.5257,-3.5292,-3.5303,-3.528,-3.5403,-3.5364,-3.5379,-3.5427,-3.5551,-3.5558,-3.5565,-3.5617,-3.5632,-3.5644,0,0,0,0,0,0,-3.5119,-3.5148,-3.5135,-3.5222,-3.5251,-3.5277,-3.5322,-3.5306,-3.5345,-3.5338,-3.5331,-3.5338,-3.5414,-3.5428,-3.5385,-3.5518,-3.5471,-3.5482,-3.5506,-3.552,-3.5531,-3.5525,-3.5337,0,0,0,0,0,-3.5141,-3.519,-3.5212,-3.5286,-3.5302,-3.531,-3.5337,-3.5331,-3.5361,-3.5373,-3.5389,-3.5418,-3.5463,-3.5492,-3.5535,-3.5624,-3.5629,-3.5664,-3.5676,-3.5685,-3.5694,-3.574,-3.5755,-3.5592,-3.5592,-3.5592,0,0,-3.5185,-3.5206,-3.5238,-3.5297,-3.5319,-3.5368,-3.532,-3.5375,-3.5412,-3.5381,-3.5451,-3.5464,-3.5496,-3.5577,-3.5613,-3.5591,-3.574,-3.5694,-3.5702,-3.5705,-3.5749,-3.5764,-3.5778,-3.5597,-3.5596,-3.5596,0,0,-3.529,-3.5312,-3.5375,-3.5398,-3.5432,-3.5437,-3.5452,-3.5481,-3.5489,-3.5559,-3.5536,-3.5579,-3.5657,-3.568,-3.5702,-3.5816,-3.5795,-3.583,-3.5889,-3.5934,-3.5947,-3.5958,-3.5997,-3.6011,-3.5839,-3.5839,-3.5839,0,-3.534,-3.5414,-3.541,-3.5467,-3.5492,-3.5467,-3.5531,-3.5553,-3.5599,-3.5617,-3.5591,-3.5688,-3.5708,-3.5793,-3.5821,-3.584,-3.5856,-3.5825,-3.5946,-3.5957,-3.5967,-3.6004,-3.6019,-3.5843,-3.5842,-3.5842,-3.5842,0,-3.5473,-3.5526,-3.5573,-3.5618,-3.5649,-3.5709,-3.5712,-3.5745,-3.5737,-3.5744,-3.5814,-3.5838,-3.5883,-3.5904,-3.5896,-3.5988,-3.5972,-3.5947,-3.5899,-3.5987,-3.6021,-3.6035,-3.5848,-3.5847,-3.5846,-3.5845,0,0,-3.5611,-3.5653,-3.567,-3.5689,-3.5725,-3.5764,-3.5823,-3.5868,-3.5895,-3.5927,-3.5975,-3.6041,-3.6017,-3.6042,-3.6037,-3.6077,-3.6163,-3.6046,-3.6047,-3.6065,-3.6263,-3.6281,-3.6297,-3.6151,-3.6153,-3.6155,-3.626,0,-3.5717,-3.5819,-3.5816,-3.591,-3.5957,-3.5934,-3.5984,-3.6011,-3.6019,-3.606,-3.6068,-3.6115,-3.6081,-3.6095,-3.6134,-3.6144,-3.6202,-3.6137,-3.6193,-3.6195,-3.6184,-3.6316,-3.6335,-3.6432,-3.6273,-3.6276,-3.6277,0,-3.5854,-3.5891,-3.599,-3.6017,-3.6037,-3.6082,-3.6122,-3.6162,-3.6191,-3.6194,-3.6222,-3.621,-3.6268,-3.6221,-3.6299,-3.6255,-3.6278,-3.6286,-3.629,-3.6293,-3.624,-3.6321,-3.6464,-3.6477,-3.6299,-3.6297,-3.6295,0,-3.5942,-3.6017,-3.6085,-3.6103,-3.6137,-3.6169,-3.6184,-3.6211,-3.6238,-3.6273,-3.629,-3.6332,-3.6354,-3.6386,-3.6386,-3.6352,-3.6464,-3.6417,-3.6467,-3.6467,-3.649,-3.6488,-3.6637,-3.6508,-3.6508,-3.6508,-3.6508,0,-3.6059,-3.612,-3.6125,-3.6167,-3.6234,-3.623,-3.6296,-3.6309,-3.6332,-3.6375,-3.6358,-3.6399,-3.6396,-3.6437,-3.6437,-3.6501,-3.6512,-3.6514,-3.6513,-3.6515,-3.6514,-3.6529,-3.6521,-3.6512,-3.6511,-3.651,-3.6509,0,-3.6168,-3.6174,-3.6247,-3.6273,-3.6281,-3.6329,-3.6351,-3.639,-3.6397,-3.6451,-3.6464,-3.6474,-3.6521,-3.6524,-3.6579,-3.6578,-3.6655,-3.6648,-3.6646,-3.6643,-3.6692,-3.6687,-3.6853,-3.6874,-3.6734,-3.6735,-3.6736,0,-3.6242,-3.6289,-3.632,-3.6347,-3.6365,-3.641,-3.6437,-3.6435,-3.6464,-3.65,-3.6535,-3.658,-3.6616,-3.6692,-3.6704,-3.6745,-3.6737,-3.6792,-3.6743,-3.6743,-3.6736,-3.6732,-3.6736,-3.6801,-3.6803,-3.6804,-3.6805,0,-3.6372,-3.6372,-3.6413,-3.6454,-3.6487,-3.6519,-3.6549,-3.6573,-3.6574,-3.6607,-3.6655,-3.6683,-3.6738,-3.6783,-3.6823,-3.6838,-3.6822,-3.6821,-3.6834,-3.6836,-3.6832,-3.6833,-3.667,-3.6817,-3.6816,-3.6815,-3.6814,-3.6814,-3.6465,-3.6504,-3.6532,-3.6577,-3.6599,-3.6627,-3.6665,-3.6676,-3.6716,-3.6761,-3.6757,-3.681,-3.6837,-3.6889,-3.6907,-3.6947,-3.6928,-3.6948,-3.6953,-3.6957,-3.6961,-3.6827,-3.6955,-3.6955,-3.6954,-3.6954,-3.6954,0,-3.6592,-3.6608,-3.665,-3.6692,-3.6727,-3.671,-3.6742,-3.6772,-3.6819,-3.6845,-3.6881,-3.6935,-3.6978,-3.6994,-3.7035,-3.7065,-3.7058,-3.7075,-3.7072,-3.7076,-3.6977,-3.696,-3.708,-3.708,-3.708,-3.708,-3.708,-3.708,-3.6662,-3.6727,-3.6731,-3.6806,-3.6822,-3.6874,-3.6893,-3.6919,-3.694,-3.7001,-3.7037,-3.7047,-3.7068,-3.7111,-3.715,-3.7153,-3.7168,-3.7188,-3.7188,-3.7096,-3.7083,-3.7071,-3.7055,-3.7192,-3.7192,-3.7283,-3.7284,-3.7285]},{"header":{"parameterUnit":"m.s-1","parameterCategory":1,"la1":30.2991,"la2":30.254,"lo1":-89.0895,"lo2":-89.0444,"dy":0.0017,"dx":0.0017,"nx":28,"ny":28,"refTime":"2023-09-19T09:00:00:Z","depth":0,"parameterNumber":3,"parameterNumberName":"V-component_of_WINDS"},"data":[0,0,0,0,0,0,0,0,0,0,0,0,0,0,0,0,0,0,0,0,0,0,0,0,0,0,0,0,0,0,0,0,0,0,0,0,0,0,0,0,0,0,0,0,0,0,0,0,0,0,0,0,0,0,0,0,0,0,3.6364,3.6364,0,3.6344,3.6344,3.6344,3.6287,3.6286,3.6285,3.6284,3.6262,3.6263,3.6264,0,0,0,0,0,0,0,0,0,0,0,0,0,3.6354,3.6354,3.6364,3.6364,3.6364,3.6344,3.6344,3.6344,3.6288,3.6286,3.6285,3.6283,3.6262,3.6263,3.6264,0,0,0,0,0,0,0,0,0,0,0,0,0,3.6348,3.6354,3.6365,3.6334,3.6331,3.6344,3.6344,3.6344,3.6288,3.6286,3.6284,3.6283,3.6262,3.6263,3.6264,3.6305,0,0,3.6266,3.6267,0,0,0,0,0,0,0,0,3.6349,3.6349,3.6338,3.6336,3.6332,3.6316,3.6332,3.6331,3.6288,3.6304,3.6284,3.6282,3.6282,3.6281,3.6281,3.6304,3.6304,3.6266,3.6267,3.6267,3.6268,0,0,0,0,0,0,0,3.6349,3.6349,3.6356,3.6338,3.6335,3.632,3.6318,3.6332,3.6303,3.6303,3.6298,3.6297,3.628,3.628,3.628,3.6303,3.6266,3.6267,3.6268,3.6268,3.6357,3.6359,0,0,0,0,0,0,3.6354,3.635,3.6357,3.6356,3.6336,3.6322,3.6319,3.6323,3.6303,3.6298,3.6298,3.6294,3.628,3.6279,3.6279,3.6324,3.6267,3.6268,3.6269,3.6355,3.6357,3.6359,0,0,0,0,0,0,3.6354,3.6355,3.6358,3.6352,3.6351,3.6324,3.633,3.6324,3.6324,3.63,3.6295,3.6304,3.6278,3.6278,3.6299,3.6323,3.6268,3.6269,3.6353,3.6356,3.6358,3.6416,0,0,0,0,0,0,3.6354,3.6356,3.6371,3.6353,3.6352,3.6378,3.6331,3.6325,3.6326,3.632,3.6304,3.6299,3.6277,3.6298,3.63,3.6323,3.627,3.6351,3.6354,3.6357,3.6412,3.6421,3.6428,0,0,0,0,0,3.6354,3.6389,3.6373,3.6374,3.6371,3.638,3.6379,3.6353,3.6328,3.6343,3.6328,3.63,3.6321,3.63,3.6302,3.6326,3.6349,3.6353,3.6357,3.6408,3.6419,3.6428,0,0,0,0,0,0,3.6412,3.6386,3.6367,3.6398,3.6391,3.637,3.6389,3.6365,3.6365,3.636,3.6327,3.6324,3.6348,3.634,3.6318,3.6364,3.633,3.6335,3.6368,3.6378,3.6386,3.6387,3.6271,0,0,0,0,0,3.6428,3.6438,3.6415,3.6444,3.6441,3.6416,3.6419,3.6399,3.6391,3.6388,3.6373,3.6366,3.6371,3.6375,3.6378,3.6411,3.6406,3.6429,3.6437,3.6443,3.6447,3.6461,3.6471,3.6373,3.6373,3.6373,0,0,3.6462,3.6449,3.6457,3.6455,3.6447,3.6457,3.6414,3.6427,3.6433,3.639,3.6407,3.6397,3.6387,3.6413,3.6425,3.6407,3.6473,3.6449,3.6454,3.6454,3.6467,3.6476,3.6484,3.6376,3.6375,3.6375,0,0,3.6527,3.652,3.6541,3.6535,3.6524,3.6507,3.6512,3.6495,3.6486,3.6503,3.647,3.6478,3.6487,3.648,3.6478,3.6541,3.6514,3.6543,3.6584,3.6598,3.6606,3.6613,3.6632,3.664,3.6547,3.6547,3.6548,0,3.657,3.6584,3.6556,3.657,3.6569,3.6531,3.6551,3.6547,3.6538,3.6538,3.6518,3.6528,3.6519,3.6542,3.6557,3.6558,3.6561,3.6543,3.6607,3.6614,3.6619,3.6638,3.6645,3.6551,3.655,3.655,3.655,0,3.6635,3.6646,3.6665,3.6656,3.6658,3.6676,3.665,3.6655,3.6635,3.6619,3.6637,3.6625,3.6623,3.6628,3.6609,3.6648,3.6637,3.6614,3.6578,3.6632,3.6649,3.6656,3.6555,3.6554,3.6553,3.6552,0,0,3.6735,3.6711,3.6718,3.6713,3.6698,3.6705,3.6721,3.672,3.6723,3.6719,3.673,3.6738,3.6715,3.6713,3.6693,3.6707,3.6753,3.6681,3.668,3.6692,3.6793,3.6809,3.6817,3.6737,3.6738,3.6739,3.6792,0,3.6795,3.682,3.6795,3.6824,3.6832,3.6795,3.6809,3.6801,3.6787,3.6791,3.6776,3.6781,3.6752,3.675,3.6762,3.6745,3.6773,3.6742,3.6745,3.6745,3.6746,3.6826,3.6844,3.6894,3.6799,3.68,3.6801,0,3.6867,3.6865,3.6895,3.6877,3.6879,3.6892,3.6887,3.6893,3.6882,3.6871,3.6868,3.6844,3.6857,3.6825,3.6841,3.682,3.682,3.6812,3.6814,3.6811,3.6774,3.6823,3.691,3.6917,3.6811,3.6811,3.681,0,3.6934,3.6939,3.6956,3.6954,3.6934,3.6943,3.6935,3.6923,3.6923,3.692,3.6919,3.6918,3.6916,3.6915,3.6891,3.687,3.6909,3.6875,3.6898,3.6899,3.6906,3.6906,3.6992,3.6911,3.6911,3.6911,3.6911,0,3.7001,3.702,3.6986,3.6996,3.7016,3.6988,3.7008,3.6997,3.6986,3.6993,3.6963,3.697,3.6939,3.6942,3.6924,3.6938,3.6939,3.6929,3.6923,3.693,3.6931,3.6927,3.6922,3.6913,3.6913,3.6912,3.6912,0,3.7077,3.7055,3.7072,3.7052,3.7047,3.7062,3.7044,3.7053,3.7037,3.7046,3.7047,3.7022,3.7025,3.7001,3.6999,3.6986,3.7009,3.6999,3.7012,3.7008,3.7031,3.7028,3.7116,3.7125,3.7042,3.7042,3.7043,0,3.712,3.7134,3.7115,3.7117,3.7111,3.7116,3.7115,3.7088,3.7089,3.7078,3.7087,3.7087,3.7086,3.7091,3.7072,3.7071,3.7058,3.7089,3.7057,3.7063,3.7055,3.7053,3.7053,3.7095,3.7096,3.7097,3.7098,0,3.7198,3.7186,3.7187,3.7184,3.7185,3.7181,3.7176,3.7179,3.7149,3.7152,3.7154,3.7153,3.715,3.715,3.7144,3.7135,3.7111,3.7108,3.7113,3.7118,3.7124,3.7119,3.7027,3.7105,3.7105,3.7104,3.7104,3.7103,3.7257,3.7267,3.7254,3.7256,3.7249,3.7244,3.725,3.7235,3.7236,3.7232,3.7216,3.722,3.7209,3.7198,3.7191,3.7194,3.7179,3.7186,3.7188,3.7189,3.7192,3.7127,3.7193,3.7193,3.7193,3.7192,3.7192,0,3.7331,3.7321,3.7323,3.7315,3.7316,3.7294,3.7287,3.7288,3.7293,3.7284,3.7283,3.7284,3.7284,3.7265,3.7262,3.7267,3.7255,3.7267,3.7265,3.7262,3.7207,3.7202,3.7276,3.7276,3.7276,3.7276,3.7276,3.7276,3.7369,3.7383,3.737,3.738,3.737,3.7374,3.7371,3.7366,3.7358,3.7361,3.736,3.7348,3.7335,3.733,3.7328,3.7322,3.7321,3.7336,3.7326,3.7275,3.7267,3.7259,3.7254,3.7337,3.7337,3.7381,3.7381,3.7381]}]]